Location: *
(47.6569°N, 7.4256°E)
Time: 23:07:04
(UTC+00:00)

Cosmos 1954 Rocket - Pass Details

Date: 14 December 2019
Orbit: 751 x 782 km, 74.0° (Epoch: 24 January)

Event Time Altitude Azimuth Distance (km) Brightness Sun altitude
Rises 18:02:47 0° 205° (SSW) 3,190 7.7 -23.2°
Reaches altitude 10° 18:05:08 10° 207° (SSW) 2,272 6.9 -23.5°
Maximum altitude 18:10:17 76° 294° (WNW) 785 4.0 -24.4°
Enters shadow 18:12:04 42° 10° (N) 1,085 4.6 -24.7°
